Weather History for KABQ - January, 2015

Change the Weather History Date:

Wednesday, January 21, 2015

  Actual Average Record
Temperature  
Mean Temperature 39 °F 37 °F  
Max Temperature 47 °F 47 °F 68 °F (1971)
Min Temperature 30 °F 26 °F -2 °F (1918)
Degree Days  
Heating Degree Days 26 28  
Month to date heating degree days 597 610  
Since 1 July heating degree days 2067 2367  
Cooling Degree Days 0 0  
Month to date cooling degree days 0 0  
Year to date cooling degree days 0 0  
Moisture  
Dew Point 29 °F    
Average Humidity 71    
Maximum Humidity 96    
Minimum Humidity 45    
Precipitation  
Precipitation 0.21 in 0.02 in 0.22 in (1916)
Month to date precipitation 0.42 0.26  
Year to date precipitation 0.42 0.26  
Snow  
Snow 1.10 in - - ()
Month to date snowfall 3.3  
Since 1 July snowfall 4.5  
Snow Depth 0.00 in    
Sea Level Pressure  
Sea Level Pressure 30.01 in    
Wind  
Wind Speed 16 mph (ENE)    
Max Wind Speed 39 mph    
Max Gust Speed 50 mph    
Visibility 8 miles    
Events Rain , Snow    
T = Trace of Precipitation, MM = Missing Value Source: NWS Daily Summary

Daily Weather History Graph

Daily Weather History Graph

Search for Another Location

Airport or City:

Trip Planner

Search our weather history database for the weather conditions in past years. The results will help you decide how hot, cold, wet, or windy it might be!

Date:

Astronomy

Jan. 21, 2015 Rise Set
Actual Time 7:12 AM MST 5:23 PM MST
Civil Twilight 6:44 AM MST 5:51 PM MST
Nautical Twilight 6:13 AM MST 6:21 PM MST
Astronomical Twilight 5:43 AM MST 6:52 PM MST
Moon 7:48 AM MST (1/21) 7:09 PM MST (1/21)
Length of Visible Light 11h 06m
Length of Day
10h 11m
New Moon, 2% of the Moon is Illuminated
Jan 21
New Moon
Jan 26
First Quarter
Feb 3
Full
Feb 11
Last Quarter
Feb 18
New

Hourly Weather History & Observations

Time (MST) Temp. Windchill Dew Point Humidity Pressure Visibility Wind Dir Wind Speed Gust Speed Precip Events Conditions
12:52 AM 45.0 °F 39.3 °F 27.0 °F 49% 29.94 in 10.0 mi ENE 11.5 mph - N/A   Overcast
1:52 AM 44.1 °F 39.5 °F 27.0 °F 51% 29.95 in 10.0 mi ENE 8.1 mph - N/A   Overcast
2:52 AM 42.1 °F 35.2 °F 26.1 °F 53% 29.95 in 10.0 mi ENE 12.7 mph - N/A   Overcast
3:52 AM 39.9 °F 30.5 °F 28.0 °F 63% 29.96 in 10.0 mi East 19.6 mph - N/A   Mostly Cloudy
4:52 AM 39.9 °F 36.7 °F 28.0 °F 63% 29.97 in 10.0 mi Variable 4.6 mph - N/A   Overcast
5:52 AM 37.9 °F 27.3 °F 28.0 °F 68% 29.99 in 10.0 mi East 21.9 mph - N/A   Overcast
6:52 AM 37.9 °F 27.9 °F 28.0 °F 68% 29.99 in 10.0 mi East 19.6 mph 29.9 mph N/A   Overcast
7:52 AM 37.9 °F 27.3 °F 28.0 °F 68% 30.00 in 10.0 mi East 21.9 mph 26.5 mph N/A   Mostly Cloudy
8:52 AM 37.9 °F 26.8 °F 28.0 °F 68% 30.01 in 10.0 mi East 24.2 mph - N/A   Mostly Cloudy
9:52 AM 41.0 °F 32.2 °F 28.0 °F 60% 30.01 in 10.0 mi East 18.4 mph - N/A   Mostly Cloudy
10:52 AM 41.0 °F 31.1 °F 27.0 °F 57% 30.01 in 10.0 mi East 23.0 mph 28.8 mph N/A   Overcast
11:52 AM 39.0 °F 28.8 °F 27.0 °F 62% 29.99 in 10.0 mi East 21.9 mph - N/A   Overcast
12:52 PM 41.0 °F 32.2 °F 28.0 °F 60% 29.95 in 10.0 mi East 18.4 mph - N/A   Overcast
1:52 PM 42.1 °F 34.9 °F 27.0 °F 55% 29.94 in 10.0 mi East 13.8 mph - N/A   Overcast
2:13 PM 41.0 °F 33.1 °F 28.9 °F 62% 29.98 in 10.0 mi ENE 15.0 mph - 0.00 in Rain Light Rain
2:52 PM 37.0 °F 28.1 °F 33.1 °F 86% 29.96 in 8.0 mi East 15.0 mph - 0.00 in Rain Light Rain
3:52 PM 37.9 °F 30.0 °F 34.0 °F 86% 29.97 in 7.0 mi East 12.7 mph - 0.01 in Rain Light Rain
4:52 PM 37.0 °F 32.4 °F 33.1 °F 86% 29.98 in 4.0 mi ENE 5.8 mph - 0.00 in Rain Light Rain
5:08 PM 36.0 °F 30.3 °F 33.1 °F 89% 30.00 in 3.0 mi NNW 6.9 mph - 0.01 in Rain Light Rain
5:31 PM 34.0 °F 28.8 °F 32.0 °F 92% 30.01 in 1.0 mi NNE 5.8 mph - 0.05 in Rain Light Rain
5:52 PM 33.1 °F 27.7 °F 32.0 °F 96% 30.02 in 1.0 mi NNW 5.8 mph - 0.08 in Snow Light Snow
5:59 PM 33.1 °F 27.7 °F 32.0 °F 96% 30.02 in 0.5 mi NNW 5.8 mph - 0.00 in Snow Light Snow
6:52 PM 33.1 °F 26.9 °F 32.0 °F 96% 30.05 in 0.5 mi North 6.9 mph - 0.06 in Snow Light Snow
7:52 PM 33.1 °F 28.7 °F 32.0 °F 96% 30.07 in 0.8 mi ENE 4.6 mph - 0.05 in Snow Light Snow
7:56 PM 33.1 °F 26.9 °F 32.0 °F 96% 30.07 in 2.0 mi Variable 6.9 mph - 0.00 in Snow Light Snow
8:11 PM 33.1 °F 23.0 °F 30.9 °F 92% 30.06 in 3.0 mi ENE 15.0 mph - 0.01 in   Overcast
8:36 PM 34.0 °F 25.0 °F 30.0 °F 85% 30.07 in 10.0 mi East 12.7 mph - 0.01 in   Overcast
8:52 PM 35.1 °F 24.1 °F 28.9 °F 78% 30.06 in 10.0 mi East 19.6 mph 29.9 mph 0.01 in   Overcast
9:52 PM 34.0 °F 20.3 °F 27.0 °F 75% 30.07 in 10.0 mi East 29.9 mph 39.1 mph N/A   Overcast
10:52 PM 30.9 °F 17.8 °F 21.9 °F 69% 30.11 in 10.0 mi ENE 23.0 mph 39.1 mph N/A   Overcast
11:52 PM 30.9 °F 16.2 °F 19.9 °F 64% 30.13 in 10.0 mi ENE 29.9 mph 44.9 mph N/A   Overcast